This demonstration page uses our WeatherBlox Daily Observations layout. Learn more.

Left ArrowRight Arrow

36.17497, -115.13722

Hourly Observations for November 23, 2020

Temp ( °F °C ) Dew Point ( °F °C ) Humidity (%) Winds ( mph kmh ) Pressure ( in mb ) Visibility ( mi km ) Precip ( " mm )
12:53 am 00:53 Clear 48 8.9 23 -5 37 37 NNW 6 9 29.83 1010 10 16 0.00 0.00
1:53 am 01:53 Clear 46 7.8 20 -6.7 35 35 NW 6 9 29.81 1010 10 16 0.00 0.00
2:53 am 02:53 Clear 46 7.8 22 -5.6 38 38 NNW 8 13 29.81 1010 10 16 0.00 0.00
3:53 am 03:53 Clear 46 7.8 20 -6.7 35 35 NW 3 6 29.79 1009 10 16 0.00 0.00
4:53 am 04:53 Clear 46 7.8 22 -5.6 38 38 W 8 13 29.81 1009 10 16 0.00 0.00
5:53 am 05:53 Clear 45 7.2 24 -4.4 44 44 WNW 8 13 29.82 1010 10 16 0.00 0.00
6:53 am 06:53 Sunny 47 8.3 24 -4.4 41 41 WNW 3 6 29.83 1010 10 16 0.00 0.00
7:53 am 07:53 Sunny 51 10.6 24 -4.4 35 35 WNW 3 6 29.84 1010 10 16 0.00 0.00
8:53 am 08:53 Sunny 53 11.7 23 -5 31 31 Calm 29.85 1011 10 16 0.00 0.00
9:53 am 09:53 Sunny 55 12.8 22 -5.6 28 28 W 3 6 29.86 1011 10 16 0.00 0.00
10:53 am 10:53 Sunny 58 14.4 21 -6.1 24 24 VRB 3 6 29.84 1011 10 16 0.00 0.00
11:53 am 11:53 Sunny 61 16.1 21 -6.1 21 21 SSE 7 11 29.80 1009 10 16 0.00 0.00
12:53 pm 12:53 Sunny 62 16.7 22 -5.6 21 21 E 6 9 29.78 1009 10 16 0.00 0.00
1:53 pm 13:53 Sunny 64 17.8 22 -5.6 20 20 ESE 6 9 29.77 1008 10 16 0.00 0.00
2:53 pm 14:53 Sunny 64 17.8 21 -6.1 19 19 ESE 8 13 29.76 1008 10 16 0.00 0.00
3:53 pm 15:53 Sunny 64 17.8 21 -6.1 19 19 SSE 7 11 29.77 1008 10 16 0.00 0.00
4:53 pm 16:53 Clear 64 17.8 21 -6.1 19 19 NW 3 6 29.78 1008 10 16 0.00 0.00
5:53 pm 17:53 Clear 58 14.4 22 -5.6 25 25 NE 10 17 29.80 1009 10 16 0.00 0.00
6:53 pm 18:53 Clear 63 17.2 20 -6.7 19 19 NW 16 26 29.82 1010 10 16 0.00 0.00
7:53 pm 19:53 Mostly Clear 60 15.6 21 -6.1 22 22 NW 8 13 29.85 1011 10 16 0.00 0.00
8:53 pm 20:53 Clear 61 16.1 21 -6.1 21 21 NW 8 13 29.86 1011 10 16 0.00 0.00
9:53 pm 21:53 Clear 60 15.6 21 -6.1 22 22 NW 14 22 29.87 1011 10 16 0.00 0.00
10:53 pm 22:53 Clear 59 15 21 -6.1 23 23 NW 21 33 29.87 1012 10 16 0.00 0.00
11:53 pm 23:53 Clear 58 14.4 21 -6.1 24 24 NW 23 37 29.89 1012 10 16 0.00 0.00

Powered by AerisWeather